Weather in Saint-Pierre

Reunion     21°20′34″S   55°28′05″E
temp.,
°C
wind,
m/s
gust,
m/s
humid.,
%
clouds,
%
prec.,
mm/h
press.,
hPa
HPBL,
m
9 march, tue
tue901:00+20sse129037 0.1 1008170
04:00+20se119135 0.1 1007106
07:00+20ene11840 0.0 100990
10:00+24s31680 0.0 1010636
13:00+23s328028 0.1 1010481
16:00+22s338029 0.6 1009525
19:00+20se338819 0.2 1010293
22:00+20e228010 0.2 1012123
10 march, wed
wed1001:00+20ene11800 0.2 101168
04:00+19e22902 0.9 1010121
07:00+20ese33891 0.4 1012204
10:00+23se43701 0.4 1013630
13:00+25sse54643 0.3 1011787
16:00+23sse65711 0.4 1010713
19:00+20se45840 0.1 1012268
22:00+19ese34840 0.1 1013200
11 march, thu
thu1101:00+18ese23780 0.0 1012153
04:00+17ese33830 0.0 1012175
07:00+17e34740 0.0 1012180
10:00+23se54610 0.0 1013690
13:00+24sse66631 0.0 1012880
16:00+22se67785 0.3 1011602
19:00+20se678856 0.4 1012408
22:00+19ese448833 0.6 1013276
12 march, fri
fri1201:00+19ese33914 0.4 1012188
04:00+19ese349225 0.9 1011196
07:00+19se459317 0.4 1012263
10:00+20se569444 1.1 1013322
13:00+20se669395 0.7 1012352
16:00+21se558170 1.0 1011450
19:00+19ese45818 0.1 1012190
22:00+19e348617 0.1 1013171
13 march, sat
sat1301:00+19e34905 0.3 1012194
04:00+20se459529 1.4 1011309
07:00+20ese469398 0.3 1012308
10:00+23ese458176 0.4 1013505
13:00+25se457635 2.8 1012594
16:00+23ese458567 11.3 1011386
19:00+22ese3590100 4.7 1012238
22:00+21e3489100 6.9 1013171